DW8266 Weather Reports


Display with metric or nautical units.
time (UTC)temp
F
wind
direction
speed
MPH
gust
MPH
rain 1hr
in
rain 24hr
in
rain mn
in
humidity
%
barometer
mb
20260504171600 79 196 2.0 10.0 0.00 0.00 0.00 73 1015.0
20260504160107 76 169 3.0 9.0 0.00 0.00 0.00 72 1016.0
20260504140107 70 175 0.0 3.0 0.00 0.00 0.00 78 1016.3
20260504100103 61 155 0.0 0.0 0.00 0.00 0.00 84 1015.9
20260504081559 62 155 0.0 1.0 0.00 0.00 0.00 83 1016.3
20260504050104 65 157 0.0 2.0 0.00 0.00 0.00 77 1018.7
20260504050005 65 157 0.0 2.0 0.00 0.00 0.00 76 1018.7
20260504044601 65 157 0.0 2.0 0.00 0.00 0.00 76 1018.8
20260504043058 66 157 0.0 2.0 0.00 0.00 0.00 74 1018.8
20260504041602 66 157 0.0 2.0 0.00 0.00 0.00 73 1018.8
20260504040057 67 157 0.0 2.0 0.00 0.00 0.00 72 1018.8
20260504034558 67 156 0.0 2.0 0.00 0.00 0.00 71 1018.7
20260504033058 68 159 0.0 1.0 0.00 0.00 0.00 70 1018.7
20260504031558 68 152 0.0 3.0 0.00 0.00 0.00 69 1018.7
20260504024615 69 121 1.0 5.0 0.00 0.00 0.00 66 1018.6
20260504023058 70 140 0.0 3.0 0.00 0.00 0.00 66 1018.5
20260504021559 70 132 0.0 2.0 0.00 0.00 0.00 64 1018.4
20260504020058 71 152 0.0 4.0 0.00 0.00 0.00 63 1018.4
20260504014605 72 213 0.0 3.0 0.00 0.00 0.00 62 1018.1
20260504013059 72 213 0.0 3.0 0.00 0.00 0.00 60 1017.9
20260504011558 73 181 0.0 5.0 0.00 0.00 0.00 59 1018.0
20260504010105 74 144 0.0 2.0 0.00 0.00 0.00 58 1017.9
20260504004600 74 132 0.0 3.0 0.00 0.00 0.00 57 1018.0
20260504001557 76 139 0.0 4.0 0.00 0.00 0.00 56 1018.0
20260504000138 77 40 1.0 6.0 0.00 0.00 0.00 54 1017.9
20260503234601 78 205 3.0 7.0 0.00 0.00 0.00 54 1017.9
20260503233057 79 153 2.0 6.0 0.00 0.00 0.00 50 1018.0
20260503231559 80 124 0.0 6.0 0.00 0.00 0.00 49 1018.3
20260503230057 81 90 0.0 3.0 0.00 0.00 0.00 46 1018.2
20260503224558 81 160 1.0 5.0 0.00 0.00 0.00 44 1018.3
20260503223058 81 147 1.0 8.0 0.00 0.00 0.00 46 1018.5
20260503221600 80 163 2.0 7.0 0.00 0.00 0.00 45 1018.8
20260503220057 80 217 3.0 6.0 0.00 0.00 0.00 45 1019.0
20260503214558 82 198 0.0 5.0 0.00 0.00 0.00 46 1018.9
20260503213110 81 166 1.0 5.0 0.00 0.00 0.00 45 1019.1
20260503211620 81 198 1.0 6.0 0.00 0.00 0.00 48 1019.3
20260503210101 82 140 1.0 6.0 0.00 0.00 0.00 45 1019.7
20260503204600 82 169 3.0 6.0 0.00 0.00 0.00 44 1019.7
20260503203113 81 92 0.0 3.0 0.00 0.00 0.00 44 1020.1
20260503201558 82 196 2.0 6.0 0.00 0.00 0.00 50 1020.1
20260503200059 82 58 0.0 4.0 0.00 0.00 0.00 46 1020.5
20260503200004 82 148 0.0 4.0 0.00 0.00 0.00 46 1020.5
20260503194600 82 122 0.0 4.0 0.00 0.00 0.00 46 1020.6
20260503193100 80 192 1.0 7.0 0.00 0.00 0.00 44 1020.8
20260503191604 81 65 0.0 6.0 0.00 0.00 0.00 49 1021.1
20260503190004 81 83 0.0 4.0 0.00 0.00 0.00 48 1021.4
20260503184600 80 92 2.0 7.0 0.00 0.00 0.00 47 1021.5
20260503183059 80 179 3.0 7.0 0.00 0.00 0.00 47 1021.7
20260503181605 80 58 1.0 6.0 0.00 0.00 0.00 52 1021.9
20260503180117 79 202 1.0 6.0 0.00 0.00 0.00 51 1022.2
20260503174558 80 155 1.0 3.0 0.00 0.00 0.00 47 1022.6
20260503173102 79 40 0.0 2.0 0.00 0.00 0.00 48 1022.8